Weather History for Rensselaer, IN

Change the Weather History Date:

Saturday, August 24, 2013

  Actual Average (KVPZ) Record (KVPZ)
Temperature  
Mean Temperature 68 °F 70 °F  
Max Temperature 80 °F 80 °F 90 °F (2011)
Min Temperature 55 °F 60 °F 49 °F (2009)
Degree Days  
Heating Degree Days 0 0  
Month to date heating degree days 0  
Since 1 June heating degree days 45  
Since 1 July heating degree days 4  
Cooling Degree Days 2 5  
Month to date cooling degree days 152  
Year to date cooling degree days 603  
Since 1 June cooling degree days 556  
Growing Degree Days 18 (Base 50)    
Moisture  
Dew Point 56 °F    
Average Humidity 69    
Maximum Humidity 100    
Minimum Humidity 37    
Precipitation  
Precipitation 0.00 in 0.14 in 0.72 in (2004)
Month to date precipitation 3.35  
Year to date precipitation 24.58  
Sea Level Pressure  
Sea Level Pressure 30.25 in    
Wind  
Wind Speed 4 mph (East)    
Max Wind Speed 10 mph    
Max Gust Speed -    
Visibility 10 miles    
Events      
T = Trace of Precipitation, MM = Missing Value Source: NWS Daily Summary

Daily Weather History Graph

Daily Weather History Graph

Search for Another Location

Airport:

Trip Planner

Search our weather history database for the weather conditions in past years. The results will help you decide how hot, cold, wet, or windy it might be!

Date:

Astronomy

Aug. 24, 2013 Rise Set
Actual Time 6:07 AM CDT 7:33 PM CDT
Civil Twilight 5:39 AM CDT 8:02 PM CDT
Nautical Twilight 5:04 AM CDT 8:36 PM CDT
Astronomical Twilight 4:27 AM CDT 9:12 PM CDT
Moon 9:24 PM CDT (8/24) 10:09 AM CDT (8/24)
Length of Visible Light 14h 23m
Length of Day
13h 25m
Waning Gibbous, 84% of the Moon is Illuminated
Aug 24
Waning Gibbous
Aug 28
Last Quarter
Sep 5
New
Sep 12
First Quarter
Sep 19
Full

Hourly Weather History & Observations

Time (CDT) Temp. Heat Index Dew Point Humidity Pressure Visibility Wind Dir Wind Speed Gust Speed Precip Events Conditions
12:15 AM 59.0 °F - 57.2 °F 94% 30.18 in 10.0 mi NE 4.6 mph - N/A   Clear
12:35 AM 59.0 °F - 57.2 °F 94% 30.19 in 10.0 mi NE 4.6 mph - N/A   Clear
12:55 AM 59.0 °F - 57.2 °F 94% 30.19 in 10.0 mi NE 3.5 mph - N/A   Clear
1:15 AM 59.0 °F - 57.2 °F 94% 30.19 in 10.0 mi ENE 3.5 mph - N/A   Clear
1:35 AM 59.0 °F - 55.4 °F 88% 30.19 in 10.0 mi Calm Calm - N/A   Clear
1:55 AM 60.8 °F - 57.2 °F 88% 30.19 in 10.0 mi NE 3.5 mph - N/A   Clear
2:15 AM 59.0 °F - 55.4 °F 88% 30.19 in 10.0 mi NE 3.5 mph - N/A   Clear
2:35 AM 59.0 °F - 55.4 °F 88% 30.20 in 10.0 mi NE 3.5 mph - N/A   Clear
2:55 AM 59.0 °F - 55.4 °F 88% 30.20 in 10.0 mi ENE 4.6 mph - N/A   Clear
3:15 AM 59.0 °F - 55.4 °F 88% 30.21 in 10.0 mi NE 4.6 mph - N/A   Clear
3:35 AM 57.2 °F - 55.4 °F 94% 30.21 in 10.0 mi NE 4.6 mph - N/A   Clear
3:55 AM 57.2 °F - 55.4 °F 94% 30.21 in 10.0 mi ENE 4.6 mph - N/A   Clear
4:15 AM 57.2 °F - 55.4 °F 94% 30.22 in 10.0 mi NE 3.5 mph - N/A   Clear
4:35 AM 55.4 °F - 53.6 °F 94% 30.22 in 10.0 mi NE 3.5 mph - N/A   Clear
4:55 AM 55.4 °F - 53.6 °F 94% 30.23 in 10.0 mi East 3.5 mph - N/A   Clear
5:15 AM 57.2 °F - 55.4 °F 94% 30.23 in 10.0 mi Calm Calm - N/A   Clear
5:35 AM 55.4 °F - 53.6 °F 94% 30.24 in 10.0 mi Calm Calm - N/A   Clear
5:55 AM 55.4 °F - 53.6 °F 94% 30.24 in 10.0 mi ENE 4.6 mph - N/A   Clear
6:15 AM 55.4 °F - 53.6 °F 94% 30.26 in 10.0 mi NE 4.6 mph - N/A   Clear
6:35 AM 55.4 °F - 53.6 °F 94% 30.27 in 10.0 mi NE 4.6 mph - N/A   Clear
6:55 AM 55.4 °F - 55.4 °F 100% 30.27 in 10.0 mi ENE 3.5 mph - N/A   Clear
7:15 AM 59.0 °F - 55.4 °F 88% 30.27 in 10.0 mi ENE 3.5 mph - N/A   Clear
7:35 AM 60.8 °F - 57.2 °F 88% 30.28 in 10.0 mi Calm Calm - N/A   Clear
7:55 AM 62.6 °F - 59.0 °F 88% 30.28 in 10.0 mi Calm Calm - N/A   Clear
8:15 AM 64.4 °F - 60.8 °F 88% 30.28 in 10.0 mi East 3.5 mph - N/A   Clear
8:35 AM 68.0 °F - 59.0 °F 73% 30.28 in 10.0 mi ESE 5.8 mph - N/A   Clear
8:55 AM 69.8 °F - 60.8 °F 73% 30.28 in 10.0 mi SE 5.8 mph - N/A   Clear
9:15 AM 71.6 °F - 60.8 °F 69% 30.28 in 10.0 mi SE 6.9 mph - N/A   Clear
9:35 AM 71.6 °F - 59.0 °F 64% 30.28 in 10.0 mi SE 5.8 mph - N/A   Clear
9:55 AM 73.4 °F - 59.0 °F 61% 30.29 in 10.0 mi SE 5.8 mph - N/A   Clear
10:15 AM 73.4 °F - 59.0 °F 61% 30.29 in 10.0 mi SSE 8.1 mph - N/A   Clear
10:35 AM 75.2 °F - 59.0 °F 57% 30.29 in 10.0 mi SE 8.1 mph - N/A   Clear
10:55 AM 77.0 °F - 55.4 °F 47% 30.29 in 10.0 mi SE 9.2 mph - N/A   Clear
11:15 AM 77.0 °F - 53.6 °F 44% 30.29 in 10.0 mi ESE 10.4 mph - N/A   Clear
11:35 AM 78.8 °F - 53.6 °F 42% 30.28 in 10.0 mi ESE 9.2 mph - N/A   Clear
11:55 AM 78.8 °F - 53.6 °F 42% 30.29 in 10.0 mi ESE 8.1 mph - N/A   Clear
12:15 PM 78.8 °F - 55.4 °F 44% 30.28 in 10.0 mi ESE 6.9 mph - N/A   Clear
12:35 PM 78.8 °F - 53.6 °F 42% 30.28 in 10.0 mi SE 5.8 mph - N/A   Clear
12:55 PM 78.8 °F - 55.4 °F 44% 30.28 in 10.0 mi SSE 5.8 mph - N/A   Clear
1:15 PM 78.8 °F - 53.6 °F 42% 30.27 in 10.0 mi SE 3.5 mph - N/A   Clear
1:35 PM 78.8 °F - 53.6 °F 42% 30.27 in 10.0 mi ESE 5.8 mph - N/A   Clear
1:55 PM 80.6 °F 80.5 °F 55.4 °F 42% 30.27 in 10.0 mi ESE 6.9 mph - N/A   Clear
2:15 PM 80.6 °F 80.3 °F 53.6 °F 39% 30.26 in 10.0 mi ESE 4.6 mph - N/A   Clear
2:35 PM 80.6 °F 80.5 °F 55.4 °F 42% 30.26 in 10.0 mi ENE 4.6 mph - N/A   Clear
2:55 PM 80.6 °F 80.3 °F 53.6 °F 39% 30.25 in 10.0 mi Calm Calm - N/A   Clear
3:15 PM 80.6 °F 80.3 °F 53.6 °F 39% 30.25 in 10.0 mi ENE 4.6 mph - N/A   Clear
3:35 PM 80.6 °F 80.3 °F 53.6 °F 39% 30.24 in 10.0 mi East 4.6 mph - N/A   Clear
3:55 PM 80.6 °F - 51.8 °F 37% 30.24 in 10.0 mi ENE 3.5 mph - N/A   Clear
4:15 PM 80.6 °F 80.3 °F 53.6 °F 39% 30.23 in 10.0 mi NE 5.8 mph - N/A   Clear
4:35 PM 80.6 °F 80.3 °F 53.6 °F 39% 30.23 in 10.0 mi ENE 4.6 mph - N/A   Clear
4:55 PM 80.6 °F 80.3 °F 53.6 °F 39% 30.23 in 10.0 mi East 4.6 mph - N/A   Clear
5:15 PM 80.6 °F 80.3 °F 53.6 °F 39% 30.23 in 10.0 mi ENE 5.8 mph - N/A   Clear
5:35 PM 78.8 °F - 53.6 °F 42% 30.23 in 10.0 mi ENE 5.8 mph - N/A   Clear
5:55 PM 78.8 °F - 55.4 °F 44% 30.23 in 10.0 mi East 4.6 mph - N/A   Clear
6:15 PM 77.0 °F - 55.4 °F 47% 30.23 in 10.0 mi East 4.6 mph - N/A   Clear
6:35 PM 77.0 °F - 55.4 °F 47% 30.22 in 10.0 mi East 4.6 mph - N/A   Clear
6:55 PM 73.4 °F - 55.4 °F 53% 30.23 in 10.0 mi East 5.8 mph - N/A   Clear
7:15 PM 71.6 °F - 59.0 °F 64% 30.23 in 10.0 mi East 4.6 mph - N/A   Clear
7:35 PM 71.6 °F - 59.0 °F 64% 30.23 in 10.0 mi East 3.5 mph - N/A   Clear
7:55 PM 69.8 °F - 57.2 °F 64% 30.23 in 10.0 mi ENE 3.5 mph - N/A   Clear
8:15 PM 68.0 °F - 59.0 °F 73% 30.24 in 10.0 mi ENE 4.6 mph - N/A   Clear
8:35 PM 68.0 °F - 59.0 °F 73% 30.24 in 10.0 mi ENE 3.5 mph - N/A   Clear
8:55 PM 68.0 °F - 59.0 °F 73% 30.24 in 10.0 mi ENE 3.5 mph - N/A   Clear
9:15 PM 68.0 °F - 59.0 °F 73% 30.25 in 10.0 mi NE 3.5 mph - N/A   Clear
9:35 PM 66.2 °F - 57.2 °F 73% 30.25 in 10.0 mi ENE 3.5 mph - N/A   Clear
9:55 PM 62.6 °F - 57.2 °F 82% 30.25 in 10.0 mi Calm Calm - N/A   Clear
10:15 PM 64.4 °F - 57.2 °F 77% 30.25 in 10.0 mi East 3.5 mph - N/A   Clear
10:35 PM 62.6 °F - 57.2 °F 82% 30.25 in 10.0 mi Calm Calm - N/A   Clear
10:55 PM 62.6 °F - 57.2 °F 82% 30.25 in 10.0 mi Calm Calm - N/A   Clear
11:15 PM 62.6 °F - 57.2 °F 82% 30.25 in 10.0 mi Calm Calm - N/A   Clear
11:35 PM 60.8 °F - 57.2 °F 88% 30.25 in 10.0 mi ESE 3.5 mph - N/A   Clear
11:55 PM 62.6 °F - 57.2 °F 82% 30.25 in 10.0 mi ESE 4.6 mph - N/A   Clear